Location: Kershaw
(34.5481°N, 80.5823°W)
Time: 12:20:32
(UTC+00:00)

A-11 Canister half - Pass Details

Date: 12 October 2022
Orbit: 1524 x 1685 km, 47.3° (Epoch: 25 November)

Event Time Altitude Azimuth Distance (km) Brightness Sun altitude
Rises 02:39:21 0° 295° (WNW) 4,725 12.3 -46.2°
Reaches altitude 10° 02:43:08 10° 282° (WNW) 3,761 11.5 -46.9°
Enters shadow 02:49:28 24° 240° (WSW) 2,864 10.5 -48.0°
